Regional Weather Roundup
Issued by NWS

Home | Current Version | Previous Version | Graphics & Text | Print | Product List | Glossary On
Versions: 1 2 3 4 5 6 7 8 9 10 11 12 13 14 15 16 17 18 19 20 21 22 23 24 25 26 27 28 29 30 31 32 33 34 35 36 37 38 39 40 41 42 43 44 45 46 47 48 49 50
000
ASUS43 KDMX 170106
RWRIA

WEATHER ROUNDUP FOR IOWA
NATIONAL WEATHER SERVICE DES MOINES IA
700 PM CST THU NOV 16 2017

NOTE: "FAIR" INDICATES FEW OR NO CLOUDS BELOW 12,000 FEET WITH NO
SIGNIFICANT WEATHER AND/OR OBSTRUCTIONS TO VISIBILITY.

* - THESE STATIONS ARE NOT NWS STATIONS...THUS NOT UNDER NWS
QUALITY CONTROL.  THEY ALSO DO NOT REPORT WEATHER SUCH
AS PRECIPITATION OR FOG.

IAZ001>003-012>014-020>022-031>034-043>046-170200-
   NORTHWEST IOWA

CITY           SKY/WX    TMP DP  RH WIND       PRES   REMARKS
CARROLL *      CLOUDY    34  28  80 SE13      29.99F WCI  25
CHEROKEE *     CLOUDY    32  28  83 SE10G18   29.93F WCI  24
DENISON *      CLEAR     39  28  65 SE16      29.95F WCI  30
LE MARS *      CLOUDY    41  27  56 SE15G25   29.88F
ORANGE CITY *  CLOUDY    37  30  75 SE14G20   29.87F WCI  29
SHELDON *      CLOUDY    32  27  80 SE22G31   29.85F WCI  19
SIOUX CITY     CLOUDY    41  28  60 SE15      29.90F
SPENCER        CLOUDY    30  26  85 SE20      29.93F WCI  17
STORM LAKE *   CLOUDY    30  27  86 SE16      29.93F WCI  19
$$

IAZ055>058-069>071-079>083-090>094-170200-
   SOUTHWEST IOWA

CITY           SKY/WX    TMP DP  RH WIND       PRES   REMARKS
ATLANTIC *     CLOUDY    41  28  60 SE14      29.98F
AUDUBON *      CLOUDY    37  28  70 SE8       29.99F WCI  31
CLARINDA *     CLOUDY    41  28  60 S10       30.03S
COUNCIL BLFS * CLEAR     39  30  70 SE16      29.95F WCI  30
CRESTON *      CLOUDY    36  28  75 SE12      30.04F WCI  27
HARLAN  *      CLEAR     41  28  60 S14       30.00F
LAMONI         CLOUDY    38  28  67 SE9       30.06F WCI  31
RED OAK *      PTCLDY    41  28  60 SE13G20   29.99F
SHENANDOAH *   CLOUDY    41  30  65 SE9       29.99F
$$

IAZ047>049-059>061-072>074-084-170200-
   CENTRAL IOWA

CITY           SKY/WX    TMP DP  RH WIND       PRES   REMARKS
AMES           CLOUDY    32  29  88 SE10      30.07S WCI  24
ANKENY *       CLOUDY    32  28  86 SE12      30.09F WCI  23
BOONE *        PTCLDY    32  28  86 SE15G22   30.04F WCI  22
CHARITON *     CLEAR     36  28  75 SE10      30.07F WCI  28
DES MOINES     PTCLDY    36  28  73 E12       30.07F WCI  28
GRINNELL*      CLOUDY    32  29  88 E10       30.13F WCI  23
KNOXVILLE *    CLEAR     34  28  80 E10G17    30.08F WCI  26
MARSHALLTOWN   CLOUDY    32  28  85 SE14      30.11F WCI  22
NEWTON *       PTCLDY    32  28  86 E14       30.10F WCI  22
PELLA *        CLOUDY    32  28  84 SE9       30.12F WCI  24
PERRY *          N/A     31  28  86 E10       30.04S WCI  23
$$

IAZ004>006-015-016-023>025-035-036-170200-
   NORTH CENTRAL IOWA

CITY           SKY/WX    TMP DP  RH WIND       PRES   REMARKS
ALGONA *       CLOUDY    32  32 100 SE18G25   30.00R WCI  20
CLARION *      CLOUDY    32  32 100 SE23      30.03F WCI  19
ESTHERVILLE    CLOUDY    29  27  92 SE20      29.96F WCI  16
FORT DODGE *   CLOUDY    30  27  88 SE12G21   30.03F WCI  20
MASON CITY     CLOUDY    31  26  82 SE16      30.06F WCI  20
FOREST CITY *    N/A     32  30  93 SE16G24   30.03F WCI  21
WEBSTER CITY * CLOUDY    32  28  86 SE16G22   30.02F WCI  21
IOWA FALLS *     N/A     33  30  89 E12       30.10F WCI  24
$$

IAZ007>011-017>019-026>030-037>042-050>054-066-170200-
   NORTHEAST IOWA

CITY           SKY/WX    TMP DP  RH WIND       PRES   REMARKS
CEDAR RAPIDS   PTCLDY    33  28  81 SE8       30.17R WCI  26
CHARLES CITY * CLOUDY    32  30  93 SE12      30.10F WCI  23
CLINTON *      CLOUDY    33  28  81 SE9       30.22S WCI  25
DECORAH *      CLOUDY    34  28  80 SE10      30.11S WCI  26
DUBUQUE        CLOUDY    32  26  78 SE10      30.19S WCI  24
MONTICELLO *   CLOUDY    34  28  80 SE10G18   30.19R WCI  26
OELWEIN *      CLOUDY    34  32  93 SE12      30.14F WCI  25
WATERLOO       CLOUDY    34  27  75 SE12      30.12F WCI  25
$$

IAZ064-065-067-068-078-170200-
   EAST CENTRAL IOWA

CITY           SKY/WX    TMP DP  RH WIND       PRES   REMARKS
DAVENPORT      CLOUDY    32  27  81 SE8       30.22F WCI  25
IOWA CITY      CLOUDY    33  28  81 S7        30.21R WCI  27
MT. PLEASANT * CLEAR     30  29  96 E9        30.18F WCI  22
MUSCATINE *    CLOUDY    34  28  80 SE7       30.21S WCI  28
QUAD CITIES    CLOUDY    31  26  82 E7        30.21F WCI  24
$$

IAZ062-063-075>077-085>089-095>099-170200-
   SOUTHEAST IOWA

CITY           SKY/WX    TMP DP  RH WIND       PRES   REMARKS
BURLINGTON     CLOUDY    32  28  85 E7        30.19F WCI  26
FAIRFIELD *    CLEAR     30  28  93 E10       30.15F WCI  21
FORT MADISON * CLEAR     30  28  93 E7        30.19F WCI  23
KEOKUK *       CLEAR     32  28  86 E9        30.17F WCI  24
OSKALOOSA *      N/A     31  28  91 SE9       30.14F WCI  23
OTTUMWA        CLEAR     31  27  85 SE9       30.13F WCI  23
WASHINGTON *   PTCLDY    30  30 100 SE9       30.19S WCI  22
$$

ABBREVIATIONS USED IN REMARKS
   TC - TEMPERATURES IN CELSIUS
  WCI - WIND CHILL INDEX
   HX - HEAT INDEX
  VSB - VISIBILITY
$$





USA.gov is the U.S. government's official web portal to all federal, state and local government web resources and services.